Wetbulb
42.19 41.77 41.54 41.29 40.95 40.72 40.48 40.15 40.14 40.14 40.12 39.99 39.83 39.79 39.58 39.40 39.09 38.99 38.96 38.91 38.67 38.54 38.63 38.81 38.82 38.94 39.10 39.34 39.24 39.15 39.07 39.12 39.06 39.09 39.10 39.03 38.88 38.97 39.01 39.05 39.05 38.97 38.89 38.74 38.78 38.66 38.51 38.47 38.24 37.97 37.81 37.81 37.73 37.73 37.94 38.40 38.38 38.14 37.85 37.67 37.63 37.67 37.75 37.66 37.50 37.66 37.79 37.79 37.79
41.87 41.62 41.36 41.05 40.76 40.59 40.42 40.15 40.08 40.04 40.03 40.00 39.76 39.64 39.45 39.11 38.86 38.70 38.67 38.64 38.54 38.63 38.61 38.55 38.70 38.75 38.75 38.88 38.95 38.89 38.71 38.65 38.54 38.52 38.45 38.49 38.58 38.63 38.70 38.66 38.70 38.69 38.68 38.62 38.45 38.19 38.00 38.09 37.74 37.36 37.13 37.17 37.06 37.02 37.27 38.26 38.59 38.13 37.50 37.39 37.47 37.47 37.48 37.28 37.36 37.52 37.67 37.68 37.79
41.79 41.52 41.24 40.84 40.67 40.31 39.87 39.61 39.61 39.64 39.79 39.77 39.59 39.36 39.06 38.71 38.54 38.31 38.22 38.31 38.53 38.54 38.37 38.05 38.38 38.57 38.56 38.55 38.67 38.66 38.51 38.33 38.18 38.11 38.04 38.01 38.12 38.28 38.32 38.36 38.40 38.54 38.52 38.40 38.24 37.97 37.83 37.72 37.35 36.93 36.60 36.40 36.36 36.33 36.48 37.19 37.45 37.22 36.88 36.88 37.04 37.04 36.96 36.69 37.07 37.37 37.48 37.37 37.60
41.63 41.31 40.98 40.52 40.22 39.93 39.61 39.19 39.26 39.32 39.36 39.29 39.29 39.16 38.83 38.56 38.26 38.11 37.99 38.13 38.14 38.00 37.89 37.81 38.36 38.66 38.78 38.63 38.48 38.36 38.27 38.19 38.04 37.86 37.68 37.68 37.79 37.86 37.90 38.02 37.87 37.87 37.94 37.92 37.83 37.66 37.58 37.48 36.92 36.51 36.30 36.16 36.08 36.04 36.08 36.50 36.85 36.74 36.50 36.70 36.70 36.63 36.51 36.44 36.81 36.97 37.04 37.00 37.38
41.21 40.95 40.57 40.22 39.93 39.88 39.76 39.50 39.22 39.06 39.02 39.06 38.67 38.41 38.23 38.16 37.98 37.79 37.61 37.53 37.42 37.53 37.70 37.98 38.39 38.71 38.75 38.43 38.09 37.87 37.87 37.90 37.91 37.64 37.46 37.42 37.49 37.56 37.56 37.53 37.38 37.27 37.34 37.48 37.38 37.25 37.20 37.06 36.50 36.17 36.00 35.97 35.74 35.82 36.02 36.50 36.47 36.31 36.23 36.35 36.50 36.36 36.33 36.22 36.45 36.60 36.67 36.63 36.81
40.80 40.67 40.50 40.21 39.89 39.65 39.53 39.31 39.04 38.81 38.67 38.57 38.09 37.75 37.53 37.49 37.38 37.23 37.01 36.97 37.26 37.61 37.92 38.17 38.23 38.22 38.11 37.86 37.57 37.42 37.38 37.49 37.49 37.42 37.20 37.12 37.05 37.08 37.08 36.94 36.94 36.97 37.00 37.03 37.02 37.00 36.90 36.64 36.05 35.78 35.77 35.75 35.77 35.96 36.24 36.41 36.06 35.78 35.72 35.69 36.01 36.20 36.20 36.06 36.25 36.40 36.44 36.32 36.43
40.86 40.63 40.41 40.26 39.86 39.51 39.11 38.99 38.92 38.70 38.47 38.10 37.61 37.23 37.12 37.12 37.12 37.12 37.16 37.26 37.37 37.41 37.53 37.56 37.44 37.33 37.22 37.26 37.08 37.04 36.94 36.86 36.86 36.86 36.86 36.64 36.61 36.68 36.64 36.57 36.68 36.64 36.64 36.60 36.60 36.59 36.51 36.32 35.60 35.34 35.38 35.53 35.28 35.56 36.03 36.09 35.71 35.38 35.16 35.01 35.47 35.77 36.01 36.04 36.18 36.19 36.12 36.10 36.07
40.73 40.46 40.30 40.22 39.87 39.52 39.13 38.71 38.51 38.21 37.87 37.46 37.27 37.05 36.94 37.05 37.12 37.09 37.12 37.20 37.05 37.05 37.08 37.10 37.11 37.00 36.92 36.87 36.77 36.73 36.58 36.47 36.37 36.40 36.38 36.27 36.20 36.30 36.30 36.34 36.30 36.30 36.38 36.48 36.38 36.23 36.05 35.91 35.29 35.04 34.92 35.02 34.82 35.09 35.48 35.84 35.53 35.24 34.89 34.75 34.99 35.28 35.59 35.80 36.14 36.08 35.86 35.80 35.80
40.15 40.03 39.98 39.86 39.55 39.28 38.93 38.55 38.21 37.79 37.38 37.12 37.08 37.01 36.97 37.01 37.04 36.97 36.82 36.60 36.75 36.97 37.14 36.95 37.06 36.99 36.84 36.67 36.55 36.44 36.34 36.30 36.11 36.05 36.06 36.10 36.04 35.97 35.98 35.95 35.85 35.87 35.95 36.18 36.04 35.93 35.67 35.28 34.99 34.81 34.66 34.59 34.45 34.73 35.09 35.49 35.14 34.85 34.60 34.40 34.43 34.63 34.94 35.15 35.57 35.52 35.34 35.23 35.30
39.79 39.83 39.67 39.28 39.01 38.82 38.55 38.24 37.94 37.57 37.08 36.74 36.71 36.79 36.86 36.89 36.85 36.74 36.60 36.53 36.88 36.92 36.74 36.63 36.70 36.51 36.34 36.22 36.14 36.14 36.12 36.14 36.05 36.06 36.03 36.05 36.03 35.94 35.83 35.73 35.66 35.52 35.50 35.67 35.66 35.55 35.29 34.75 34.55 34.48 34.53 34.56 34.57 34.65 34.85 34.96 34.62 34.33 34.16 33.86 34.05 34.20 34.40 34.57 34.82 34.85 34.70 34.54 34.77
39.75 39.71 39.47 39.01 38.59 38.40 38.20 37.60 37.37 37.10 36.73 36.48 36.63 36.71 36.71 36.71 36.56 36.50 36.57 36.69 36.35 36.03 35.96 36.21 36.20 35.93 35.75 35.70 35.81 35.98 36.05 36.09 36.00 35.87 35.86 35.76 35.73 35.76 35.60 35.47 35.46 35.29 35.20 35.26 35.27 35.08 34.74 34.33 34.14 34.17 34.30 34.33 34.42 34.45 34.46 34.52 34.20 33.91 33.72 33.60 33.89 33.86 33.86 34.02 34.23 34.20 34.20 34.19 34.31
39.48 39.28 39.07 38.75 38.52 38.09 37.56 36.93 36.71 36.63 36.49 36.43 36.56 36.56 36.51 36.41 36.38 36.41 36.32 36.12 35.67 35.42 35.66 36.04 35.92 35.71 35.57 35.47 35.76 35.88 35.95 35.97 35.88 35.72 35.56 35.40 35.43 35.42 35.29 35.24 35.16 35.00 35.00 34.97 34.98 34.67 34.33 34.09 33.94 33.84 33.88 33.95 33.97 33.98 34.06 34.06 33.80 33.50 33.30 33.32 33.36 33.23 33.13 33.28 33.60 33.73 33.82 33.90 33.88
39.03 38.75 38.50 38.29 38.00 37.46 36.91 36.43 36.30 36.27 36.21 36.15 36.25 36.25 36.23 36.14 36.22 36.21 35.95 35.48 35.31 35.29 35.49 35.85 35.94 35.74 35.57 35.49 35.64 35.72 35.75 35.76 35.67 35.54 35.26 35.13 35.03 34.93 34.83 34.72 34.72 34.69 34.59 34.58 34.60 34.34 34.02 33.84 33.74 33.57 33.41 33.39 33.46 33.61 33.69 33.60 33.29 33.01 32.78 32.74 32.76 32.66 32.58 32.76 33.10 33.32 33.47 33.49 33.27
38.35 38.05 37.73 37.56 37.24 36.81 36.43 36.15 36.00 35.96 35.84 35.75 35.90 36.00 35.98 35.87 35.99 35.85 35.55 35.20 35.14 35.27 35.44 35.60 35.68 35.68 35.67 35.66 35.61 35.53 35.48 35.36 35.28 35.08 34.86 34.73 34.69 34.57 34.39 34.27 34.36 34.33 34.23 34.16 34.32 34.19 33.90 33.52 33.51 33.34 33.15 32.99 33.00 33.21 33.29 33.23 32.98 32.71 32.51 32.31 32.14 32.22 32.31 32.47 32.80 32.92 32.94 32.89 32.79
37.63 37.41 37.16 36.96 36.56 36.33 36.03 35.85 35.65 35.56 35.46 35.37 35.57 35.74 35.74 35.60 35.68 35.65 35.40 35.12 35.16 35.27 35.25 35.24 35.33 35.49 35.70 35.72 35.56 35.37 35.21 35.02 34.83 34.60 34.41 34.38 34.37 34.31 34.19 33.98 34.07 34.03 33.97 33.90 33.98 33.82 33.73 33.45 33.34 33.18 32.95 32.75 32.83 32.91 33.01 32.95 32.75 32.57 32.37 32.18 32.06 32.00 32.06 32.21 32.47 32.44 32.42 32.32 32.21
37.06 37.00 36.83 36.58 36.30 35.94 35.68 35.45 35.32 35.19 35.14 35.12 35.40 35.52 35.47 35.30 35.42 35.41 35.25 34.99 35.02 35.07 35.00 34.94 35.02 35.17 35.22 35.40 35.33 35.10 34.93 34.63 34.43 34.21 34.03 33.92 34.04 34.06 33.92 33.76 33.74 33.71 33.65 33.55 33.45 33.44 33.39 33.37 33.30 33.12 32.92 32.63 32.55 32.62 32.64 32.64 32.56 32.41 32.28 32.22 32.10 32.02 31.98 32.18 32.27 32.12 31.92 31.84 31.69
36.58 36.64 36.55 36.22 35.85 35.59 35.36 35.13 35.02 34.91 34.82 34.93 35.09 35.12 35.10 34.94 34.99 35.02 34.99 34.86 34.73 34.55 34.54 34.59 34.63 34.61 34.56 34.62 34.83 34.74 34.54 34.23 33.97 33.86 33.68 33.56 33.65 33.64 33.59 33.48 33.41 33.39 33.33 33.22 32.91 32.88 32.91 33.04 33.10 33.06 32.90 32.63 32.48 32.41 32.34 32.42 32.26 32.16 32.16 32.13 32.05 32.01 32.04 32.14 32.06 31.84 31.60 31.33 31.14
36.34 36.33 36.24 35.85 35.50 35.24 35.03 34.95 34.79 34.70 34.67 34.70 34.77 34.77 34.69 34.64 34.63 34.55 34.64 34.75 34.48 34.15 34.02 34.02 34.20 34.21 34.10 34.02 34.25 34.25 34.06 33.77 33.56 33.49 33.45 33.39 33.45 33.43 33.28 33.21 33.25 33.21 33.12 32.91 32.65 32.55 32.56 32.61 32.71 32.79 32.70 32.52 32.35 32.26 32.18 32.17 32.01 31.97 31.97 31.93 31.97 31.97 31.93 31.85 31.66 31.40 31.11 30.81 30.71
36.12 35.96 35.75 35.40 35.16 34.89 34.78 34.66 34.56 34.48 34.48 34.54 34.49 34.47 34.49 34.49 34.40 34.21 34.18 34.28 34.22 34.01 33.76 33.59 33.71 33.83 33.85 33.81 33.81 33.80 33.80 33.55 33.31 33.26 33.29 33.35 33.35 33.22 33.18 33.04 33.06 32.97 32.84 32.67 32.60 32.46 32.39 32.38 32.42 32.36 32.26 32.14 32.03 31.95 31.87 31.81 31.64 31.68 31.67 31.65 31.61 31.56 31.44 31.36 31.29 31.19 31.04 30.76 30.65
35.55 35.35 35.18 34.97 34.77 34.60 34.46 34.34 34.32 34.24 34.20 34.26 34.22 34.10 34.12 34.20 34.14 34.04 33.86 33.82 34.01 33.97 33.78 33.43 33.31 33.27 33.35 33.50 33.45 33.44 33.39 33.31 33.18 33.08 33.06 33.09 33.06 32.90 32.84 32.74 32.74 32.73 32.68 32.52 32.32 32.28 32.20 32.20 32.19 32.07 31.94 31.79 31.54 31.43 31.44 31.35 31.32 31.30 31.32 31.26 31.17 31.11 31.11 31.11 31.14 31.18 31.17 31.16 31.11
35.02 34.89 34.76 34.69 34.50 34.30 34.16 34.10 34.06 33.94 33.90 33.84 33.83 33.83 33.87 33.90 33.96 33.85 33.75 33.74 33.80 33.62 33.43 33.18 33.06 32.93 32.89 32.96 32.97 32.97 32.97 33.09 33.02 32.81 32.70 32.70 32.65 32.65 32.60 32.60 32.53 32.40 32.35 32.27 32.13 32.03 32.05 31.93 31.86 31.74 31.58 31.38 31.23 31.07 30.98 30.97 30.85 30.76 30.78 30.72 30.81 30.93 31.05 31.04 31.07 31.15 31.29 31.38 31.49
34.71 34.59 34.46 34.34 34.10 33.95 33.81 33.74 33.70 33.64 33.60 33.56 33.60 33.62 33.61 33.63 33.58 33.60 33.67 33.58 33.51 33.30 33.05 32.90 32.81 32.75 32.65 32.64 32.52 32.48 32.55 32.62 32.61 32.55 32.43 32.36 32.38 32.45 32.57 32.61 32.45 32.29 32.14 32.06 31.96 31.89 31.80 31.74 31.63 31.53 31.34 31.11 31.08 31.05 30.86 30.61 30.43 30.35 30.47 30.67 30.73 30.88 31.03 31.12 31.24 31.46 31.69 31.90 31.94
34.39 34.26 34.11 33.92 33.76 33.49 33.37 33.43 33.37 33.30 33.26 33.26 33.33 33.31 33.30 33.25 33.32 33.29 33.29 33.20 33.07 32.92 32.74 32.73 32.67 32.62 32.56 32.52 32.38 32.16 32.05 31.96 32.05 32.11 32.20 32.19 32.22 32.32 32.48 32.40 32.37 32.28 32.01 31.77 31.81 31.72 31.50 31.32 31.36 31.41 31.33 31.04 30.86 30.77 30.54 30.20 30.13 30.05 30.07 30.26 30.56 30.86 31.09 31.19 31.44 31.80 32.00 32.20 32.29
33.94 33.69 33.55 33.39 33.21 33.10 33.05 33.03 32.97 32.84 32.77 32.79 32.85 32.91 32.89 32.86 32.86 32.78 32.77 32.68 32.56 32.52 32.41 32.31 32.36 32.43 32.43 32.32 32.19 31.99 31.73 31.48 31.47 31.59 31.83 32.09 32.18 32.22 32.28 32.12 32.02 31.89 31.74 31.60 31.81 31.80 31.70 31.28 31.16 31.17 31.22 31.03 30.70 30.55 30.50 30.35 30.30 30.27 30.25 30.27 30.58 30.80 30.96 31.22 31.56 31.85 32.04 32.36 32.56
33.25 32.96 32.76 32.64 32.60 32.62 32.60 32.57 32.48 32.36 32.44 32.57 32.59 32.56 32.43 32.33 32.31 32.22 32.16 32.07 32.08 32.08 32.02 31.99 32.07 32.05 32.03 31.96 31.91 31.87 31.68 31.43 31.32 31.28 31.38 31.61 31.80 31.80 31.76 31.56 31.43 31.40 31.44 31.64 32.42 32.91 33.07 32.77 32.18 31.54 31.09 30.89 30.77 30.71 30.70 30.80 30.73 30.60 30.48 30.43 30.64 30.70 30.87 31.19 31.45 31.70 31.97 32.43 32.75
32.56 32.27 32.11 32.19 32.17 32.17 32.13 32.07 32.09 32.12 32.16 32.30 32.19 32.12 31.95 31.96 31.85 31.84 31.62 31.45 31.58 31.63 31.68 31.68 31.60 31.72 31.74 31.64 31.62 31.59 31.53 31.50 31.39 31.29 31.05 30.96 31.07 31.10 31.05 30.88 30.87 30.94 31.21 31.79 32.63 33.31 33.65 34.09 33.94 33.20 32.19 31.24 30.97 30.88 30.86 30.95 31.16 31.18 31.25 31.29 31.22 31.05 30.91 30.73 30.99 31.24 31.63 32.03 32.66
31.87 31.73 31.76 31.97 31.87 31.71 31.69 31.85 31.92 31.93 31.84 31.88 31.75 31.65 31.59 31.64 31.51 31.36 31.14 30.98 31.13 31.25 31.38 31.38 31.36 31.52 31.64 31.46 31.36 31.25 31.15 31.16 31.17 31.08 30.84 30.57 30.34 30.25 30.29 30.29 30.40 30.61 31.08 32.06 32.84 33.46 33.94 34.39 34.66 34.42 33.55 32.06 31.70 31.46 31.33 31.07 31.52 31.86 32.05 31.88 31.64 31.24 30.91 30.72 30.97 31.36 31.76 32.26 32.66
31.28 31.33 31.40 31.40 31.29 31.27 31.37 31.62 31.52 31.44 31.47 31.45 31.37 31.37 31.32 31.24 31.01 30.80 30.72 30.72 30.82 30.86 30.95 30.96 31.26 31.33 31.29 31.03 30.93 30.86 30.86 30.79 30.63 30.56 30.48 30.34 30.14 29.89 29.83 29.86 30.14 30.56 31.39 32.48 33.13 33.61 34.02 34.39 34.69 34.86 34.48 33.30 32.23 31.94 32.04 31.81 31.70 31.65 31.46 31.39 31.15 31.16 31.29 31.25 31.40 31.46 31.62 31.81 32.08
30.84 30.84 30.81 30.77 30.83 30.89 31.06 31.13 31.05 31.09 31.07 31.13 31.08 30.99 30.86 30.64 30.48 30.41 30.36 30.34 30.36 30.32 30.33 30.52 30.90 30.89 30.67 30.31 30.38 30.33 30.38 30.27 30.22 30.11 30.05 29.83 29.70 29.63 29.63 29.78 29.98 30.65 31.70 32.97 33.40 33.72 34.00 34.22 34.44 34.71 34.77 34.55 32.87 32.17 31.97 31.78 31.39 31.21 31.04 30.98 31.12 31.34 31.43 31.35 31.22 31.19 31.20 31.35 31.40
30.38 30.33 30.30 30.24 30.35 30.44 30.56 30.67 30.73 30.85 30.87 30.84 30.76 30.53 30.33 30.06 30.04 29.98 29.98 29.92 29.95 30.03 30.19 30.41 30.28 30.04 29.81 29.71 29.71 29.69 29.59 29.67 29.86 29.86 29.69 29.37 29.23 29.32 29.47 29.81 29.90 30.51 31.58 33.00 33.47 33.62 33.76 33.94 34.17 34.44 34.63 34.78 33.61 32.58 31.90 31.89 31.65 31.38 31.17 31.11 31.35 31.40 31.46 31.36 31.40 31.33 31.26 30.99 30.97
29.98 29.96 30.02 29.85 29.82 29.92 30.13 30.39 30.45 30.54 30.48 30.38 30.20 30.01 29.77 29.58 29.49 29.61 29.67 29.67 29.75 30.01 30.26 30.25 29.74 29.46 29.33 29.46 29.36 29.31 29.25 29.38 29.46 29.48 29.27 29.10 29.13 29.26 29.41 29.64 29.87 30.50 31.49 32.87 33.24 33.38 33.60 33.70 33.85 34.12 34.31 34.59 33.56 32.50 31.81 31.95 31.68 31.40 31.21 31.09 31.21 31.35 31.43 31.41 31.45 31.37 31.18 31.12 31.01
29.69 29.65 29.58 29.38 29.38 29.58 29.84 30.05 30.09 30.09 30.06 29.91 29.65 29.48 29.33 29.19 29.27 29.39 29.62 29.67 29.65 29.65 29.57 29.36 29.04 28.84 28.80 28.97 29.01 29.01 29.00 28.96 28.93 29.00 29.04 28.98 28.91 28.97 29.16 29.37 29.60 30.17 31.09 32.44 32.75 33.00 33.26 33.49 33.72 33.95 34.22 34.46 33.66 32.78 32.02 32.02 31.78 31.53 31.34 31.17 31.32 31.51 31.58 31.37 31.24 31.33 31.37 31.17 31.05
29.36 29.32 29.15 29.03 29.06 29.27 29.54 29.67 29.70 29.67 29.55 29.39 29.20 29.05 28.96 28.91 28.99 29.20 29.35 29.48 29.31 29.07 28.81 28.62 28.40 28.20 28.24 28.30 28.43 28.45 28.59 28.63 28.73 28.90 29.11 29.16 28.96 28.83 28.73 28.85 28.87 29.68 30.81 31.87 32.35 32.72 33.04 33.40 33.68 33.88 34.20 34.49 33.54 32.60 31.96 31.75 31.37 31.14 31.08 31.03 31.17 31.39 31.51 31.54 31.38 31.32 31.27 31.33 31.37
29.04 28.93 28.86 28.73 28.79 28.91 29.12 29.18 29.27 29.19 29.04 28.81 28.77 28.76 28.67 28.56 28.49 28.57 28.67 28.93 28.87 28.76 28.53 28.39 28.26 28.19 28.24 28.31 28.17 28.11 28.12 28.39 28.57 28.67 28.69 28.71 28.49 28.17 27.84 27.65 27.88 29.18 30.74 31.69 32.28 32.68 33.06 33.38 33.63 33.91 34.12 34.38 33.19 32.19 31.49 31.27 30.96 30.82 30.84 30.93 31.03 31.21 31.32 31.34 31.32 31.48 31.63 31.81 31.86
28.70 28.45 28.27 28.25 28.37 28.49 28.59 28.69 28.73 28.67 28.44 28.27 28.23 28.31 28.35 28.36 28.20 28.09 28.20 28.42 28.48 28.36 28.20 28.32 28.45 28.47 28.45 28.47 28.31 28.17 27.99 27.96 27.99 28.12 28.15 28.12 27.66 27.22 26.96 26.94 27.54 29.11 30.74 31.64 32.16 32.60 32.89 33.21 33.46 33.78 33.97 33.73 32.44 31.64 31.30 31.06 31.07 31.00 30.91 30.95 31.08 31.23 31.37 31.58 31.63 31.85 32.13 32.33 32.26
28.35 27.99 27.76 27.65 27.81 27.97 28.11 28.13 28.13 28.07 27.87 27.75 27.76 27.79 27.83 27.81 27.86 27.90 28.01 28.14 27.94 27.70 27.62 27.85 28.04 28.01 27.89 27.90 27.81 27.86 27.74 27.47 27.30 27.36 27.42 27.57 27.11 26.55 26.25 26.46 27.20 28.77 30.42 31.56 31.99 32.43 32.71 33.04 33.37 33.63 33.56 32.79 31.60 31.17 31.11 31.05 30.94 30.96 30.99 30.94 31.11 31.35 31.59 31.71 31.87 32.08 32.28 32.36 32.46
28.01 27.68 27.38 27.24 27.34 27.53 27.67 27.69 27.57 27.43 27.25 27.28 27.29 27.25 27.22 27.24 27.17 27.42 27.61 27.69 27.19 26.94 26.91 27.23 27.19 27.11 27.01 27.02 26.99 27.09 27.31 27.22 26.87 26.71 26.80 27.25 26.91 26.47 26.14 26.16 26.75 28.07 29.73 31.22 31.89 32.29 32.70 33.03 33.37 33.42 33.04 31.78 30.93 30.66 30.67 30.61 30.35 30.39 30.53 30.62 30.79 31.24 31.63 31.88 32.17 32.31 32.57 32.73 33.04
27.78 27.51 27.23 26.95 26.99 27.11 27.15 27.18 26.99 26.79 26.75 26.85 26.86 26.90 26.91 26.77 26.66 26.91 27.25 27.42 26.75 26.38 26.26 26.38 26.34 26.34 26.47 26.57 26.55 26.74 26.90 26.94 26.79 26.54 26.54 26.87 26.87 26.69 26.41 26.19 26.67 27.81 29.25 30.95 31.72 32.21 32.63 33.00 33.34 33.38 32.81 31.30 30.76 30.54 30.49 30.30 30.12 30.19 30.33 30.43 30.74 31.33 31.85 32.14 32.37 32.62 32.89 33.40 33.77
27.39 27.22 27.02 26.78 26.71 26.71 26.65 26.58 26.49 26.47 26.47 26.47 26.45 26.47 26.47 26.38 26.35 26.63 27.03 27.14 26.68 26.18 25.77 25.62 25.70 25.87 26.23 26.53 26.29 26.25 26.34 26.58 26.73 26.72 26.68 26.62 27.07 27.27 27.05 26.44 26.84 27.76 29.15 30.72 31.58 32.19 32.64 32.97 33.18 33.42 33.06 31.86 31.03 30.68 30.48 30.37 30.38 30.47 30.53 30.78 30.96 31.37 31.90 32.36 32.61 32.86 33.12 33.79 34.54
27.03 26.95 26.75 26.55 26.45 26.38 26.26 26.21 26.23 26.35 26.31 26.15 25.94 25.87 25.95 26.07 26.27 26.62 26.87 26.95 26.58 26.12 25.70 25.42 25.43 25.74 26.05 26.43 26.03 25.75 25.74 25.97 26.33 26.55 26.69 26.76 27.19 27.78 27.92 27.20 27.22 27.88 29.05 30.47 31.42 32.05 32.41 32.85 33.14 33.35 33.18 31.92 31.22 30.85 30.74 30.62 30.58 30.59 30.63 30.90 31.15 31.39 31.85 32.40 32.84 33.05 33.34 33.90 34.72
26.62 26.58 26.40 26.39 26.26 26.13 25.99 25.77 25.85 25.98 26.07 25.94 25.70 25.75 25.95 26.26 26.40 26.47 26.43 26.25 26.04 25.76 25.52 25.26 25.37 25.58 25.87 26.13 25.64 25.39 25.23 25.33 25.89 26.33 26.75 27.19 27.40 27.82 28.10 27.70 27.68 27.95 28.62 29.79 30.92 31.76 32.34 32.83 33.23 33.57 33.45 32.37 31.61 31.32 31.19 30.97 30.73 30.60 30.69 31.02 31.33 31.48 31.75 32.20 32.72 33.13 33.46 33.88 34.31
MSLP
1021.55 1021.67 1021.75 1021.83 1021.95 1021.99 1022.03 1022.07 1022.19 1022.23 1022.23 1022.23 1022.23 1022.23 1022.23 1022.27 1022.23 1022.19 1022.19 1022.19 1022.11 1022.07 1022.03 1022.03 1021.99 1021.95 1021.95 1021.95 1021.95 1021.91 1021.87 1021.83 1021.79 1021.75 1021.71 1021.67 1021.59 1021.55 1021.51 1021.47 1021.47 1021.39 1021.35 1021.23 1021.15 1021.11 1020.95 1020.87 1020.79 1020.63 1020.47 1020.31 1020.15 1019.99 1019.91 1019.83 1019.75 1019.55 1019.39 1019.23 1019.07 1018.83 1018.67 1018.51 1018.35 1018.19 1018.03 1017.91 1017.79
1021.51 1021.59 1021.67 1021.79 1021.87 1021.95 1021.95 1022.03 1022.07 1022.11 1022.19 1022.23 1022.23 1022.23 1022.23 1022.23 1022.19 1022.15 1022.11 1022.11 1022.07 1022.03 1021.99 1021.99 1021.95 1021.95 1021.91 1021.87 1021.87 1021.83 1021.79 1021.75 1021.67 1021.59 1021.55 1021.47 1021.43 1021.39 1021.39 1021.31 1021.27 1021.23 1021.15 1021.11 1021.03 1020.95 1020.79 1020.67 1020.59 1020.39 1020.23 1020.07 1019.95 1019.75 1019.59 1019.51 1019.51 1019.35 1019.11 1018.95 1018.79 1018.67 1018.43 1018.23 1018.03 1017.87 1017.75 1017.63 1017.47
1021.39 1021.51 1021.67 1021.71 1021.75 1021.79 1021.83 1021.91 1021.95 1021.99 1022.07 1022.07 1022.15 1022.19 1022.23 1022.23 1022.15 1022.11 1022.07 1022.07 1022.03 1021.99 1021.95 1021.95 1021.87 1021.87 1021.83 1021.79 1021.79 1021.75 1021.67 1021.63 1021.55 1021.47 1021.39 1021.31 1021.23 1021.19 1021.11 1021.07 1020.99 1020.95 1020.95 1020.87 1020.79 1020.71 1020.59 1020.51 1020.39 1020.23 1019.99 1019.79 1019.63 1019.47 1019.31 1019.19 1019.11 1019.03 1018.79 1018.63 1018.51 1018.35 1018.15 1017.91 1017.71 1017.59 1017.51 1017.35 1017.15
1021.35 1021.43 1021.51 1021.59 1021.63 1021.67 1021.71 1021.79 1021.83 1021.91 1021.95 1022.03 1022.07 1022.11 1022.15 1022.15 1022.11 1022.07 1022.03 1021.99 1021.99 1021.95 1021.91 1021.83 1021.79 1021.79 1021.79 1021.79 1021.71 1021.67 1021.59 1021.51 1021.43 1021.35 1021.23 1021.11 1021.07 1020.95 1020.87 1020.83 1020.75 1020.67 1020.63 1020.59 1020.51 1020.47 1020.39 1020.31 1020.23 1020.03 1019.79 1019.55 1019.39 1019.23 1019.11 1018.95 1018.87 1018.75 1018.59 1018.39 1018.23 1018.07 1017.91 1017.67 1017.51 1017.39 1017.23 1016.99 1016.83
1021.27 1021.35 1021.39 1021.47 1021.51 1021.59 1021.67 1021.71 1021.79 1021.79 1021.87 1021.95 1021.99 1022.03 1022.03 1022.07 1022.03 1021.99 1021.95 1021.95 1021.87 1021.79 1021.75 1021.75 1021.75 1021.71 1021.67 1021.67 1021.59 1021.51 1021.47 1021.39 1021.27 1021.15 1021.03 1020.95 1020.83 1020.75 1020.67 1020.63 1020.51 1020.47 1020.39 1020.39 1020.31 1020.23 1020.11 1020.07 1019.95 1019.71 1019.51 1019.35 1019.15 1018.99 1018.83 1018.75 1018.63 1018.47 1018.31 1018.15 1017.99 1017.83 1017.63 1017.39 1017.19 1017.11 1016.95 1016.71 1016.51
1021.11 1021.23 1021.31 1021.39 1021.47 1021.59 1021.67 1021.67 1021.75 1021.79 1021.83 1021.91 1021.95 1021.91 1021.87 1021.87 1021.87 1021.79 1021.79 1021.71 1021.67 1021.63 1021.63 1021.63 1021.67 1021.63 1021.55 1021.51 1021.39 1021.31 1021.23 1021.11 1021.03 1020.95 1020.83 1020.71 1020.63 1020.55 1020.47 1020.39 1020.31 1020.23 1020.19 1020.07 1020.03 1019.95 1019.87 1019.79 1019.63 1019.39 1019.19 1019.03 1018.83 1018.67 1018.55 1018.51 1018.39 1018.19 1017.99 1017.79 1017.67 1017.55 1017.39 1017.11 1016.95 1016.83 1016.67 1016.43 1016.27
1020.95 1021.11 1021.23 1021.35 1021.43 1021.51 1021.59 1021.67 1021.75 1021.79 1021.83 1021.83 1021.83 1021.79 1021.71 1021.71 1021.71 1021.67 1021.63 1021.55 1021.51 1021.51 1021.51 1021.51 1021.51 1021.43 1021.35 1021.27 1021.19 1021.11 1021.03 1020.95 1020.83 1020.79 1020.67 1020.55 1020.43 1020.35 1020.23 1020.15 1020.07 1019.99 1019.91 1019.83 1019.71 1019.63 1019.51 1019.47 1019.27 1019.03 1018.79 1018.71 1018.55 1018.39 1018.23 1018.23 1018.11 1017.95 1017.71 1017.51 1017.35 1017.27 1017.15 1016.91 1016.75 1016.63 1016.47 1016.23 1016.07
1020.95 1021.07 1021.19 1021.27 1021.39 1021.51 1021.55 1021.59 1021.67 1021.67 1021.67 1021.67 1021.67 1021.63 1021.59 1021.59 1021.55 1021.51 1021.51 1021.47 1021.39 1021.39 1021.39 1021.35 1021.27 1021.23 1021.19 1021.11 1021.03 1020.99 1020.91 1020.83 1020.75 1020.67 1020.51 1020.39 1020.23 1020.07 1019.99 1019.95 1019.83 1019.75 1019.67 1019.59 1019.47 1019.35 1019.23 1019.15 1018.99 1018.79 1018.55 1018.43 1018.23 1018.07 1017.95 1017.95 1017.79 1017.67 1017.47 1017.27 1017.11 1016.99 1016.87 1016.75 1016.59 1016.43 1016.27 1016.07 1015.91
1020.91 1021.03 1021.11 1021.23 1021.35 1021.43 1021.51 1021.55 1021.59 1021.59 1021.55 1021.51 1021.51 1021.47 1021.47 1021.43 1021.43 1021.43 1021.39 1021.31 1021.23 1021.23 1021.23 1021.15 1021.11 1021.07 1020.99 1020.95 1020.87 1020.83 1020.79 1020.67 1020.55 1020.43 1020.27 1020.19 1020.03 1019.91 1019.79 1019.75 1019.63 1019.51 1019.39 1019.27 1019.19 1019.11 1018.99 1018.87 1018.71 1018.51 1018.35 1018.19 1017.99 1017.79 1017.67 1017.67 1017.55 1017.39 1017.23 1017.07 1016.87 1016.71 1016.55 1016.47 1016.39 1016.23 1016.03 1015.83 1015.67
1020.79 1020.91 1021.03 1021.15 1021.23 1021.31 1021.39 1021.47 1021.51 1021.51 1021.43 1021.39 1021.39 1021.35 1021.35 1021.35 1021.31 1021.27 1021.19 1021.11 1021.11 1021.11 1021.03 1020.95 1020.91 1020.87 1020.79 1020.75 1020.67 1020.67 1020.55 1020.47 1020.35 1020.23 1020.07 1019.95 1019.83 1019.71 1019.59 1019.51 1019.39 1019.23 1019.11 1019.03 1018.95 1018.87 1018.75 1018.63 1018.39 1018.23 1018.07 1017.95 1017.79 1017.59 1017.47 1017.39 1017.31 1017.15 1016.95 1016.79 1016.63 1016.43 1016.31 1016.19 1016.11 1015.95 1015.79 1015.59 1015.43
1020.67 1020.79 1020.95 1021.03 1021.11 1021.23 1021.31 1021.35 1021.35 1021.39 1021.35 1021.23 1021.23 1021.19 1021.15 1021.15 1021.11 1021.07 1021.07 1021.07 1021.03 1020.95 1020.87 1020.83 1020.79 1020.75 1020.67 1020.55 1020.51 1020.43 1020.35 1020.23 1020.07 1019.95 1019.79 1019.67 1019.55 1019.47 1019.39 1019.23 1019.11 1019.03 1018.91 1018.79 1018.79 1018.67 1018.51 1018.39 1018.15 1017.95 1017.79 1017.67 1017.55 1017.39 1017.23 1017.11 1016.99 1016.83 1016.63 1016.43 1016.31 1016.19 1015.95 1015.79 1015.79 1015.71 1015.51 1015.27 1015.15
1020.59 1020.75 1020.87 1020.95 1021.11 1021.19 1021.23 1021.19 1021.19 1021.19 1021.15 1021.11 1021.07 1021.03 1021.03 1020.95 1020.95 1020.95 1020.95 1020.95 1020.83 1020.75 1020.71 1020.67 1020.67 1020.55 1020.47 1020.39 1020.31 1020.19 1020.07 1019.95 1019.83 1019.67 1019.55 1019.39 1019.27 1019.19 1019.11 1018.95 1018.87 1018.79 1018.67 1018.55 1018.51 1018.43 1018.23 1018.07 1017.87 1017.67 1017.51 1017.35 1017.23 1017.11 1016.95 1016.75 1016.63 1016.47 1016.23 1016.07 1015.95 1015.83 1015.67 1015.43 1015.39 1015.31 1015.19 1014.99 1014.83
1020.55 1020.67 1020.79 1020.95 1021.03 1021.07 1021.11 1021.07 1021.03 1020.99 1020.95 1020.91 1020.91 1020.91 1020.91 1020.83 1020.79 1020.79 1020.79 1020.75 1020.67 1020.59 1020.51 1020.47 1020.47 1020.39 1020.27 1020.15 1020.07 1019.95 1019.83 1019.71 1019.55 1019.43 1019.31 1019.15 1019.07 1018.95 1018.79 1018.67 1018.59 1018.47 1018.35 1018.23 1018.23 1018.11 1017.95 1017.71 1017.55 1017.39 1017.23 1016.99 1016.91 1016.79 1016.67 1016.47 1016.27 1016.11 1015.95 1015.75 1015.59 1015.43 1015.27 1015.11 1015.03 1014.95 1014.83 1014.67 1014.51
1020.55 1020.67 1020.75 1020.79 1020.91 1020.95 1020.95 1020.95 1020.87 1020.83 1020.79 1020.79 1020.79 1020.79 1020.75 1020.71 1020.67 1020.67 1020.63 1020.51 1020.47 1020.39 1020.35 1020.23 1020.23 1020.11 1020.03 1019.95 1019.79 1019.67 1019.55 1019.43 1019.31 1019.19 1019.03 1018.91 1018.79 1018.67 1018.51 1018.39 1018.27 1018.19 1018.07 1017.95 1017.87 1017.79 1017.67 1017.43 1017.23 1017.11 1016.95 1016.71 1016.51 1016.39 1016.31 1016.19 1016.03 1015.83 1015.67 1015.47 1015.23 1015.11 1014.95 1014.79 1014.71 1014.63 1014.51 1014.39 1014.19
1020.43 1020.51 1020.63 1020.71 1020.79 1020.79 1020.79 1020.79 1020.75 1020.67 1020.67 1020.59 1020.59 1020.59 1020.59 1020.55 1020.51 1020.51 1020.47 1020.39 1020.31 1020.23 1020.15 1020.07 1019.95 1019.83 1019.79 1019.71 1019.59 1019.47 1019.31 1019.23 1019.11 1018.95 1018.75 1018.63 1018.51 1018.39 1018.23 1018.07 1017.95 1017.87 1017.79 1017.67 1017.55 1017.43 1017.35 1017.15 1016.95 1016.79 1016.63 1016.43 1016.23 1016.07 1015.95 1015.87 1015.71 1015.51 1015.35 1015.19 1014.95 1014.79 1014.59 1014.43 1014.39 1014.31 1014.19 1014.07 1013.87
1020.35 1020.39 1020.51 1020.59 1020.63 1020.67 1020.67 1020.67 1020.59 1020.55 1020.51 1020.47 1020.47 1020.47 1020.47 1020.43 1020.39 1020.39 1020.35 1020.23 1020.15 1020.07 1019.95 1019.83 1019.75 1019.67 1019.55 1019.51 1019.39 1019.23 1019.11 1018.95 1018.79 1018.67 1018.47 1018.27 1018.15 1018.07 1017.95 1017.83 1017.71 1017.59 1017.51 1017.39 1017.23 1017.11 1016.99 1016.87 1016.71 1016.55 1016.35 1016.15 1015.95 1015.79 1015.67 1015.51 1015.39 1015.19 1014.99 1014.83 1014.67 1014.51 1014.31 1014.11 1014.07 1013.95 1013.79 1013.71 1013.59
1020.23 1020.31 1020.39 1020.47 1020.51 1020.51 1020.51 1020.51 1020.51 1020.47 1020.39 1020.39 1020.39 1020.39 1020.39 1020.31 1020.23 1020.19 1020.11 1020.07 1019.95 1019.83 1019.75 1019.67 1019.59 1019.51 1019.39 1019.23 1019.15 1019.03 1018.87 1018.67 1018.51 1018.39 1018.23 1018.03 1017.91 1017.79 1017.71 1017.59 1017.51 1017.39 1017.27 1017.15 1016.99 1016.79 1016.67 1016.55 1016.43 1016.27 1016.07 1015.91 1015.67 1015.51 1015.31 1015.15 1014.99 1014.79 1014.63 1014.47 1014.31 1014.15 1013.99 1013.83 1013.75 1013.63 1013.51 1013.39 1013.27
1020.07 1020.19 1020.27 1020.31 1020.39 1020.39 1020.39 1020.43 1020.39 1020.39 1020.35 1020.35 1020.35 1020.31 1020.23 1020.23 1020.11 1020.07 1019.99 1019.95 1019.87 1019.75 1019.63 1019.51 1019.43 1019.35 1019.23 1019.03 1018.91 1018.79 1018.67 1018.51 1018.31 1018.15 1017.99 1017.87 1017.71 1017.63 1017.51 1017.39 1017.27 1017.19 1017.07 1016.91 1016.71 1016.51 1016.35 1016.23 1016.07 1015.95 1015.79 1015.59 1015.39 1015.19 1014.99 1014.79 1014.63 1014.39 1014.23 1014.11 1013.95 1013.79 1013.67 1013.55 1013.43 1013.39 1013.27 1013.11 1012.95
1019.95 1020.07 1020.11 1020.19 1020.23 1020.23 1020.31 1020.31 1020.31 1020.31 1020.27 1020.27 1020.27 1020.23 1020.15 1020.11 1020.07 1019.95 1019.87 1019.79 1019.75 1019.63 1019.51 1019.35 1019.23 1019.11 1018.95 1018.83 1018.67 1018.55 1018.43 1018.31 1018.11 1017.95 1017.79 1017.67 1017.55 1017.43 1017.31 1017.15 1017.03 1016.91 1016.79 1016.59 1016.39 1016.23 1016.07 1015.91 1015.79 1015.63 1015.43 1015.27 1015.07 1014.83 1014.67 1014.51 1014.31 1014.11 1013.95 1013.79 1013.63 1013.47 1013.35 1013.23 1013.15 1013.11 1012.99 1012.79 1012.67
1019.83 1019.91 1019.95 1020.07 1020.07 1020.11 1020.15 1020.23 1020.23 1020.23 1020.19 1020.19 1020.15 1020.07 1020.07 1019.99 1019.95 1019.83 1019.71 1019.59 1019.51 1019.43 1019.31 1019.15 1018.99 1018.83 1018.71 1018.63 1018.51 1018.35 1018.23 1018.07 1017.91 1017.71 1017.55 1017.47 1017.35 1017.23 1017.07 1016.91 1016.75 1016.63 1016.47 1016.31 1016.11 1015.95 1015.75 1015.59 1015.43 1015.27 1015.11 1014.95 1014.75 1014.51 1014.31 1014.15 1013.99 1013.79 1013.67 1013.51 1013.31 1013.15 1013.03 1012.95 1012.83 1012.75 1012.63 1012.47 1012.27
1019.71 1019.79 1019.83 1019.95 1019.99 1020.03 1020.07 1020.07 1020.07 1020.11 1020.07 1020.07 1019.99 1019.95 1019.91 1019.79 1019.71 1019.63 1019.51 1019.39 1019.31 1019.23 1019.11 1018.99 1018.79 1018.67 1018.51 1018.39 1018.23 1018.07 1017.95 1017.83 1017.67 1017.51 1017.35 1017.23 1017.07 1016.95 1016.79 1016.67 1016.51 1016.31 1016.11 1015.99 1015.83 1015.67 1015.47 1015.31 1015.15 1014.99 1014.83 1014.67 1014.43 1014.23 1014.03 1013.83 1013.63 1013.43 1013.27 1013.15 1012.95 1012.79 1012.67 1012.51 1012.43 1012.31 1012.15 1011.99 1011.83
1019.63 1019.67 1019.75 1019.83 1019.91 1019.95 1019.95 1019.95 1019.99 1019.99 1019.95 1019.87 1019.83 1019.79 1019.67 1019.59 1019.51 1019.43 1019.35 1019.27 1019.15 1019.07 1018.95 1018.79 1018.59 1018.43 1018.31 1018.19 1018.03 1017.87 1017.71 1017.63 1017.51 1017.35 1017.15 1016.99 1016.79 1016.67 1016.51 1016.39 1016.23 1015.99 1015.79 1015.67 1015.51 1015.35 1015.19 1015.03 1014.91 1014.75 1014.55 1014.35 1014.07 1013.87 1013.67 1013.51 1013.31 1013.11 1012.91 1012.71 1012.51 1012.39 1012.23 1012.07 1011.95 1011.79 1011.67 1011.47 1011.31
1019.51 1019.59 1019.67 1019.75 1019.79 1019.83 1019.87 1019.87 1019.83 1019.79 1019.79 1019.71 1019.67 1019.55 1019.47 1019.39 1019.31 1019.23 1019.19 1019.11 1018.95 1018.87 1018.71 1018.59 1018.43 1018.27 1018.11 1018.03 1017.87 1017.71 1017.51 1017.39 1017.19 1017.07 1016.91 1016.75 1016.51 1016.35 1016.19 1016.07 1015.95 1015.71 1015.51 1015.35 1015.23 1015.07 1014.91 1014.75 1014.55 1014.39 1014.27 1014.07 1013.79 1013.51 1013.31 1013.15 1012.99 1012.79 1012.59 1012.35 1012.11 1011.91 1011.75 1011.63 1011.47 1011.31 1011.15 1010.95 1010.79
1019.47 1019.51 1019.59 1019.67 1019.67 1019.67 1019.67 1019.71 1019.67 1019.67 1019.59 1019.51 1019.47 1019.39 1019.27 1019.23 1019.19 1019.11 1019.03 1018.95 1018.79 1018.67 1018.55 1018.43 1018.27 1018.11 1017.95 1017.79 1017.67 1017.51 1017.35 1017.11 1016.83 1016.67 1016.51 1016.39 1016.23 1016.07 1015.87 1015.75 1015.59 1015.43 1015.23 1015.03 1014.91 1014.79 1014.67 1014.47 1014.27 1014.07 1013.87 1013.71 1013.47 1013.23 1012.99 1012.79 1012.67 1012.47 1012.23 1011.99 1011.71 1011.47 1011.23 1011.11 1010.95 1010.79 1010.67 1010.51 1010.31
1019.39 1019.47 1019.51 1019.51 1019.51 1019.51 1019.51 1019.51 1019.51 1019.43 1019.39 1019.31 1019.27 1019.23 1019.15 1019.11 1019.03 1018.95 1018.79 1018.75 1018.63 1018.51 1018.35 1018.23 1018.07 1017.91 1017.75 1017.59 1017.39 1017.23 1017.03 1016.83 1016.59 1016.35 1016.15 1015.95 1015.83 1015.75 1015.63 1015.43 1015.27 1015.11 1014.91 1014.75 1014.59 1014.47 1014.35 1014.23 1014.07 1013.83 1013.59 1013.39 1013.15 1012.91 1012.67 1012.43 1012.27 1012.11 1011.91 1011.63 1011.39 1011.11 1010.79 1010.55 1010.43 1010.31 1010.19 1010.03 1009.83
1019.31 1019.39 1019.39 1019.39 1019.39 1019.39 1019.39 1019.35 1019.35 1019.27 1019.19 1019.15 1019.11 1019.11 1018.99 1018.95 1018.91 1018.79 1018.67 1018.51 1018.39 1018.27 1018.15 1017.99 1017.83 1017.67 1017.51 1017.31 1017.11 1016.87 1016.67 1016.51 1016.31 1016.07 1015.91 1015.67 1015.51 1015.39 1015.31 1015.23 1015.03 1014.83 1014.63 1014.43 1014.23 1014.11 1013.99 1013.87 1013.75 1013.59 1013.39 1013.19 1012.91 1012.63 1012.39 1012.11 1011.95 1011.79 1011.59 1011.35 1011.11 1010.79 1010.51 1010.19 1009.95 1009.79 1009.67 1009.51 1009.31
1019.19 1019.23 1019.23 1019.27 1019.27 1019.23 1019.23 1019.19 1019.11 1019.11 1019.07 1019.03 1018.95 1018.95 1018.87 1018.83 1018.75 1018.63 1018.51 1018.35 1018.19 1018.07 1017.95 1017.79 1017.59 1017.39 1017.19 1016.95 1016.79 1016.55 1016.39 1016.23 1016.07 1015.91 1015.75 1015.51 1015.35 1015.15 1014.99 1014.87 1014.71 1014.55 1014.35 1014.07 1013.95 1013.79 1013.67 1013.51 1013.35 1013.23 1013.11 1012.95 1012.71 1012.43 1012.11 1011.79 1011.59 1011.43 1011.23 1010.99 1010.67 1010.39 1010.07 1009.79 1009.51 1009.23 1009.03 1008.83 1008.67
1019.07 1019.11 1019.11 1019.15 1019.11 1019.11 1019.03 1019.03 1018.99 1018.95 1018.91 1018.91 1018.83 1018.79 1018.75 1018.67 1018.55 1018.43 1018.27 1018.11 1017.95 1017.79 1017.67 1017.51 1017.35 1017.15 1016.91 1016.67 1016.43 1016.27 1016.11 1015.99 1015.83 1015.67 1015.51 1015.35 1015.19 1014.95 1014.75 1014.55 1014.39 1014.19 1013.99 1013.83 1013.67 1013.47 1013.31 1013.15 1012.99 1012.87 1012.75 1012.63 1012.43 1012.19 1011.87 1011.55 1011.23 1010.99 1010.79 1010.51 1010.23 1009.95 1009.67 1009.39 1009.11 1008.79 1008.55 1008.35 1008.15
1018.95 1018.95 1018.99 1018.99 1018.95 1018.91 1018.87 1018.87 1018.87 1018.79 1018.79 1018.75 1018.71 1018.67 1018.55 1018.47 1018.35 1018.23 1018.07 1017.91 1017.75 1017.59 1017.39 1017.23 1016.99 1016.83 1016.67 1016.47 1016.23 1016.07 1015.95 1015.79 1015.67 1015.47 1015.23 1015.07 1014.87 1014.67 1014.47 1014.27 1014.07 1013.83 1013.67 1013.51 1013.35 1013.19 1012.99 1012.83 1012.67 1012.51 1012.39 1012.23 1012.07 1011.87 1011.51 1011.23 1010.95 1010.63 1010.39 1010.11 1009.83 1009.55 1009.31 1009.07 1008.79 1008.51 1008.27 1008.07 1007.79
1018.79 1018.83 1018.87 1018.83 1018.79 1018.79 1018.75 1018.71 1018.71 1018.67 1018.67 1018.63 1018.51 1018.47 1018.39 1018.23 1018.11 1017.95 1017.83 1017.67 1017.51 1017.35 1017.19 1016.99 1016.79 1016.63 1016.47 1016.27 1016.07 1015.91 1015.67 1015.51 1015.39 1015.23 1015.03 1014.79 1014.59 1014.39 1014.15 1013.95 1013.79 1013.59 1013.39 1013.23 1013.07 1012.87 1012.67 1012.51 1012.39 1012.19 1012.03 1011.87 1011.75 1011.55 1011.27 1010.95 1010.67 1010.35 1010.03 1009.71 1009.47 1009.23 1008.95 1008.71 1008.43 1008.19 1007.95 1007.75 1007.51
1018.71 1018.75 1018.75 1018.67 1018.67 1018.67 1018.63 1018.59 1018.59 1018.55 1018.51 1018.43 1018.39 1018.27 1018.15 1018.03 1017.87 1017.75 1017.59 1017.43 1017.23 1017.11 1016.95 1016.83 1016.67 1016.43 1016.23 1016.07 1015.91 1015.67 1015.47 1015.23 1015.11 1014.95 1014.79 1014.59 1014.31 1014.07 1013.91 1013.71 1013.51 1013.31 1013.11 1012.95 1012.79 1012.59 1012.43 1012.23 1012.07 1011.87 1011.67 1011.55 1011.39 1011.23 1010.95 1010.63 1010.35 1010.03 1009.71 1009.39 1009.11 1008.79 1008.59 1008.39 1008.07 1007.79 1007.59 1007.39 1007.11
1018.63 1018.63 1018.63 1018.59 1018.55 1018.51 1018.51 1018.51 1018.47 1018.39 1018.35 1018.27 1018.19 1018.07 1017.95 1017.79 1017.67 1017.51 1017.39 1017.23 1017.11 1016.91 1016.75 1016.59 1016.43 1016.23 1015.99 1015.79 1015.59 1015.43 1015.23 1015.03 1014.83 1014.71 1014.55 1014.39 1014.15 1013.91 1013.67 1013.43 1013.23 1013.03 1012.83 1012.67 1012.51 1012.39 1012.19 1011.95 1011.79 1011.59 1011.39 1011.23 1011.03 1010.79 1010.55 1010.27 1009.95 1009.67 1009.31 1008.99 1008.71 1008.47 1008.23 1007.95 1007.67 1007.39 1007.11 1006.91 1006.67
1018.51 1018.51 1018.51 1018.51 1018.43 1018.39 1018.39 1018.39 1018.31 1018.23 1018.19 1018.07 1017.95 1017.87 1017.75 1017.59 1017.47 1017.35 1017.23 1017.11 1016.95 1016.75 1016.55 1016.39 1016.23 1015.99 1015.75 1015.55 1015.35 1015.15 1014.95 1014.79 1014.67 1014.51 1014.35 1014.15 1013.95 1013.71 1013.43 1013.23 1013.03 1012.83 1012.67 1012.51 1012.31 1012.11 1011.91 1011.67 1011.43 1011.23 1010.99 1010.83 1010.67 1010.47 1010.19 1009.87 1009.59 1009.23 1008.91 1008.63 1008.31 1008.07 1007.83 1007.59 1007.31 1006.95 1006.67 1006.39 1006.19
1018.39 1018.43 1018.43 1018.39 1018.35 1018.31 1018.27 1018.23 1018.15 1018.07 1017.95 1017.87 1017.75 1017.67 1017.55 1017.39 1017.27 1017.11 1016.99 1016.87 1016.75 1016.59 1016.39 1016.23 1016.03 1015.79 1015.59 1015.39 1015.23 1014.99 1014.79 1014.59 1014.43 1014.31 1014.11 1013.95 1013.75 1013.55 1013.31 1013.11 1012.87 1012.67 1012.51 1012.27 1012.07 1011.79 1011.59 1011.31 1011.11 1010.83 1010.63 1010.43 1010.27 1010.07 1009.79 1009.47 1009.19 1008.87 1008.51 1008.23 1007.91 1007.63 1007.35 1007.11 1006.79 1006.51 1006.23 1005.95 1005.67
1018.31 1018.35 1018.35 1018.31 1018.23 1018.19 1018.11 1018.07 1017.95 1017.87 1017.79 1017.67 1017.51 1017.39 1017.31 1017.23 1017.11 1016.95 1016.79 1016.67 1016.51 1016.39 1016.23 1016.03 1015.83 1015.63 1015.43 1015.23 1015.07 1014.87 1014.67 1014.39 1014.23 1014.07 1013.95 1013.79 1013.63 1013.39 1013.11 1012.91 1012.67 1012.43 1012.23 1011.99 1011.71 1011.47 1011.23 1010.99 1010.75 1010.51 1010.35 1010.11 1009.91 1009.67 1009.39 1009.07 1008.71 1008.39 1007.99 1007.71 1007.39 1007.07 1006.79 1006.51 1006.23 1005.95 1005.67 1005.39 1005.15
1018.23 1018.23 1018.23 1018.15 1018.11 1018.03 1017.95 1017.87 1017.79 1017.67 1017.55 1017.43 1017.31 1017.19 1017.07 1016.99 1016.87 1016.79 1016.67 1016.51 1016.39 1016.19 1015.95 1015.79 1015.59 1015.39 1015.23 1015.07 1014.87 1014.67 1014.51 1014.31 1014.07 1013.87 1013.75 1013.67 1013.47 1013.23 1012.91 1012.63 1012.31 1012.07 1011.87 1011.67 1011.43 1011.15 1010.91 1010.67 1010.39 1010.19 1009.95 1009.79 1009.55 1009.27 1008.95 1008.67 1008.27 1007.91 1007.51 1007.23 1006.91 1006.55 1006.23 1005.99 1005.67 1005.39 1005.11 1004.83 1004.55
1018.11 1018.15 1018.11 1018.03 1017.95 1017.91 1017.79 1017.71 1017.63 1017.51 1017.39 1017.23 1017.11 1016.99 1016.91 1016.79 1016.71 1016.63 1016.55 1016.43 1016.19 1015.95 1015.75 1015.59 1015.39 1015.23 1015.03 1014.87 1014.67 1014.51 1014.35 1014.19 1013.99 1013.75 1013.51 1013.39 1013.27 1013.03 1012.67 1012.31 1011.99 1011.75 1011.51 1011.31 1011.11 1010.83 1010.59 1010.35 1010.07 1009.87 1009.67 1009.43 1009.19 1008.87 1008.59 1008.23 1007.91 1007.51 1007.15 1006.79 1006.43 1006.07 1005.75 1005.47 1005.15 1004.79 1004.51 1004.23 1003.95
1018.03 1018.03 1017.99 1017.95 1017.83 1017.75 1017.67 1017.59 1017.47 1017.35 1017.23 1017.07 1016.99 1016.87 1016.79 1016.67 1016.55 1016.43 1016.35 1016.23 1016.07 1015.79 1015.55 1015.39 1015.23 1015.11 1014.91 1014.71 1014.51 1014.31 1014.11 1014.03 1013.83 1013.63 1013.35 1013.11 1012.95 1012.79 1012.47 1012.07 1011.67 1011.39 1011.19 1010.95 1010.75 1010.51 1010.23 1009.95 1009.71 1009.51 1009.39 1009.15 1008.83 1008.51 1008.23 1007.87 1007.51 1007.11 1006.75 1006.35 1005.95 1005.51 1005.23 1004.95 1004.63 1004.27 1003.91 1003.59 1003.31
1017.95 1017.91 1017.87 1017.79 1017.71 1017.63 1017.51 1017.43 1017.35 1017.23 1017.07 1016.95 1016.83 1016.75 1016.67 1016.55 1016.39 1016.27 1016.15 1016.07 1015.95 1015.71 1015.47 1015.23 1015.07 1014.91 1014.79 1014.59 1014.35 1014.07 1013.83 1013.67 1013.55 1013.39 1013.15 1012.91 1012.67 1012.51 1012.23 1011.87 1011.43 1011.11 1010.83 1010.63 1010.39 1010.11 1009.87 1009.63 1009.39 1009.15 1008.99 1008.79 1008.51 1008.19 1007.87 1007.51 1007.11 1006.71 1006.31 1005.91 1005.47 1005.03 1004.67 1004.39 1004.07 1003.71 1003.31 1002.95 1002.63
1017.83 1017.79 1017.75 1017.67 1017.59 1017.51 1017.39 1017.27 1017.19 1017.07 1016.95 1016.87 1016.71 1016.63 1016.51 1016.39 1016.23 1016.11 1015.99 1015.91 1015.79 1015.59 1015.39 1015.11 1014.91 1014.75 1014.59 1014.39 1014.15 1013.83 1013.51 1013.35 1013.23 1013.11 1012.95 1012.67 1012.39 1012.19 1011.95 1011.63 1011.23 1010.83 1010.51 1010.23 1010.03 1009.79 1009.51 1009.23 1009.03 1008.79 1008.59 1008.39 1008.11 1007.83 1007.51 1007.19 1006.75 1006.31 1005.87 1005.43 1005.03 1004.59 1004.11 1003.75 1003.47 1003.15 1002.79 1002.35 1001.99
1017.75 1017.67 1017.63 1017.51 1017.43 1017.35 1017.23 1017.15 1017.07 1016.95 1016.87 1016.79 1016.63 1016.51 1016.39 1016.23 1016.07 1015.95 1015.83 1015.71 1015.59 1015.43 1015.23 1014.95 1014.75 1014.55 1014.39 1014.23 1013.95 1013.67 1013.31 1013.03 1012.83 1012.71 1012.59 1012.39 1012.07 1011.83 1011.59 1011.31 1010.95 1010.59 1010.23 1009.91 1009.67 1009.39 1009.11 1008.87 1008.63 1008.39 1008.15 1007.99 1007.75 1007.47 1007.15 1006.79 1006.39 1005.87 1005.39 1004.95 1004.59 1004.19 1003.71 1003.23 1002.91 1002.59 1002.23 1001.83 1001.43
Wind_Speed
5 5 4 3 3 3 2 2 2 2 2 2 3 3 3 4 4 4 4 4 4 4 5 5 5 6 7 9 10 10 11 11 11 11 12 12 12 12 12 12 12 12 12 13 13 12 11 11 10 9 8 8 9 10 10 9 10 11 12 12 12 12 13 15 15 16 17 18 15
6 5 4 4 3 3 3 2 3 3 3 3 3 3 3 4 4 4 5 5 5 5 5 5 6 7 8 10 10 10 11 11 12 12 12 13 13 13 12 12 12 13 13 13 13 11 10 11 10 9 8 8 9 10 10 9 10 12 14 15 13 12 12 13 14 15 16 17 15
6 5 5 4 4 4 3 3 3 3 4 3 3 3 4 4 4 4 5 5 5 6 6 5 6 8 9 10 10 10 11 11 12 12 12 12 12 13 13 12 13 13 13 12 12 11 11 11 10 9 9 8 10 10 11 11 11 12 13 15 12 11 10 11 12 13 13 12 14
6 5 5 5 5 5 4 3 3 4 4 3 3 4 4 4 4 4 5 6 6 6 6 6 7 7 8 9 10 11 11 12 13 13 13 13 13 13 13 13 13 13 13 13 13 12 12 12 10 9 9 11 12 12 11 10 11 12 12 12 11 11 11 11 11 11 11 11 13
6 5 5 5 5 5 4 3 4 4 4 3 3 4 4 4 4 5 5 6 6 6 7 8 7 7 8 9 11 12 13 13 13 13 12 13 13 13 13 13 14 13 13 13 13 13 13 13 10 9 9 11 10 10 11 12 13 12 12 10 10 10 11 11 11 10 11 11 11
6 6 5 4 5 4 4 4 4 4 4 3 4 5 5 4 4 5 6 6 7 8 8 9 9 9 9 11 12 12 13 12 12 12 12 13 13 13 13 14 14 13 13 13 13 13 13 12 10 9 9 10 10 12 13 14 13 13 12 11 11 11 11 12 11 11 11 13 14
6 5 5 4 4 4 4 4 4 4 4 4 6 7 7 6 6 7 7 7 7 8 8 8 8 9 10 11 11 11 11 11 11 12 13 13 13 13 13 14 14 14 14 13 14 13 13 12 10 10 10 10 10 11 13 13 13 13 13 13 11 11 11 13 12 11 13 16 18
5 5 5 4 4 4 5 5 5 5 5 5 6 7 8 8 8 9 9 8 8 8 7 7 9 10 11 11 11 11 12 12 12 13 13 13 14 14 14 14 14 14 14 14 14 14 13 12 10 10 10 10 10 11 13 14 15 15 15 15 13 12 12 12 12 12 14 18 20
4 5 5 4 5 5 5 5 5 6 6 6 7 8 8 9 9 9 9 8 8 8 8 8 10 11 12 12 12 12 12 12 12 13 13 13 13 14 14 13 14 14 14 13 14 15 14 12 11 10 11 10 11 12 13 15 17 17 17 16 15 15 14 14 15 16 17 18 20
5 5 5 5 5 5 5 5 6 6 7 8 8 8 9 9 9 9 8 8 8 8 9 9 10 11 12 12 12 12 12 12 12 12 13 13 13 13 14 13 14 14 14 13 13 14 14 13 12 12 13 12 14 15 17 17 18 19 18 15 15 17 18 18 18 19 19 19 20
5 5 4 4 4 4 5 5 6 6 7 8 8 8 9 9 9 9 8 8 9 10 11 10 11 11 12 12 12 12 12 11 11 12 12 13 13 14 14 14 14 14 14 14 13 13 13 12 13 15 16 15 16 17 18 19 19 20 20 17 18 19 21 21 20 19 19 20 21
4 4 4 4 4 4 5 5 5 6 7 8 8 8 8 8 9 9 9 9 11 11 11 11 11 12 12 11 11 11 11 12 12 13 13 14 14 14 15 15 15 15 15 15 14 13 12 13 14 16 18 19 16 15 16 19 20 20 21 21 21 21 21 22 21 20 18 19 20
4 4 4 4 4 5 5 6 6 6 6 7 7 7 8 8 9 9 10 10 11 10 10 10 11 11 11 11 11 11 11 12 12 13 13 14 14 15 15 15 15 16 16 15 14 14 14 15 16 18 19 20 17 17 17 20 20 21 21 22 22 22 22 23 22 21 20 21 21
4 4 4 4 5 5 5 6 5 6 6 7 7 7 7 8 8 9 9 10 10 10 10 10 10 10 10 11 11 12 12 13 13 14 14 14 15 15 16 16 16 16 16 15 15 16 16 17 18 19 20 21 20 20 20 20 20 21 21 22 23 23 23 23 22 22 22 22 22
5 5 5 5 5 5 5 5 5 6 6 7 7 7 7 7 7 8 8 9 10 10 9 9 9 10 10 12 12 13 14 14 14 15 15 16 16 16 16 16 17 17 16 16 16 17 18 19 19 20 20 21 21 21 21 21 21 21 21 22 23 23 23 23 23 22 22 22 22
5 5 5 5 5 5 5 5 5 5 6 7 7 7 7 7 7 7 8 9 9 9 9 10 10 10 11 12 13 13 14 14 14 15 16 16 16 16 17 17 17 17 18 18 18 18 18 19 19 19 20 21 21 21 21 21 22 22 22 23 23 23 23 23 23 23 22 22 22
6 5 5 5 6 6 6 6 5 6 6 7 7 7 7 7 7 7 8 9 9 9 10 11 11 11 11 12 12 13 13 14 14 15 15 16 17 17 17 18 18 18 19 19 19 19 19 19 19 19 20 21 21 21 22 22 22 22 22 23 23 23 23 23 23 23 22 22 22
6 5 5 5 6 6 7 7 7 7 7 8 8 8 8 8 8 8 8 9 10 11 12 12 12 12 12 13 13 12 12 13 15 15 16 16 17 18 18 18 18 18 19 19 20 20 20 21 20 20 20 20 21 21 21 21 22 22 22 23 23 23 23 23 23 22 21 22 22
5 5 5 6 6 6 7 7 8 8 8 8 8 8 8 9 9 9 9 10 10 11 12 13 13 13 13 14 14 13 13 14 15 16 17 17 17 18 18 18 19 19 19 20 20 20 21 21 21 21 20 20 20 21 21 21 21 22 22 23 23 23 23 23 22 22 21 22 22
5 5 5 6 6 6 7 7 8 8 8 8 8 9 9 9 10 10 10 11 11 12 13 13 14 14 14 15 15 15 14 14 15 17 17 17 18 18 18 19 19 19 20 20 20 20 21 21 21 21 21 21 21 22 22 22 22 22 22 21 21 22 22 22 22 22 22 22 23
5 5 5 6 6 7 7 7 8 8 8 9 9 9 10 10 10 11 11 11 12 12 13 14 14 15 15 16 16 16 15 14 15 16 17 17 18 18 19 19 19 19 19 19 19 20 20 20 21 21 21 21 21 22 21 21 21 21 21 20 20 21 22 22 22 23 23 23 23
5 5 5 6 6 7 7 7 8 8 8 9 9 9 10 10 10 11 11 12 12 13 14 14 15 15 16 16 16 17 16 15 15 16 17 17 18 18 18 18 18 19 19 19 19 20 20 20 20 20 20 20 21 21 21 21 21 21 21 21 22 22 22 22 22 22 22 23 23
5 5 5 5 6 7 7 7 8 8 8 9 9 9 10 10 11 11 12 12 12 13 14 14 14 15 16 16 17 17 17 17 17 17 17 17 18 18 18 17 18 18 18 18 18 18 18 18 19 19 19 19 20 20 21 20 20 20 20 21 22 22 22 22 21 21 21 22 22
5 5 5 5 6 6 7 7 7 8 8 9 9 9 10 10 11 11 12 13 13 14 14 13 13 15 16 16 17 17 18 18 19 19 18 18 18 18 18 17 17 17 17 15 16 17 17 16 16 16 17 17 18 18 19 19 19 19 20 21 21 22 22 21 21 21 21 22 21
5 5 5 5 6 6 7 7 7 8 8 9 9 10 10 11 11 12 12 13 14 14 15 15 15 15 15 16 16 17 17 18 19 19 19 18 18 18 17 16 15 15 14 14 18 21 22 21 18 16 16 16 17 18 18 19 20 20 20 20 21 21 22 22 23 22 22 22 21
5 5 5 6 6 6 7 7 8 8 9 9 9 10 10 11 11 12 13 14 14 15 15 15 15 15 15 15 16 16 16 16 17 17 18 18 19 18 17 15 14 13 14 16 20 23 25 26 25 22 19 17 17 17 18 18 19 19 20 20 20 21 21 22 22 22 22 21 21
5 5 5 5 6 7 7 7 8 8 9 9 10 10 11 11 11 12 13 14 15 15 15 14 14 14 14 14 15 16 16 16 16 17 18 18 19 19 18 17 15 13 14 18 23 25 27 27 28 27 24 19 17 16 16 17 18 18 19 19 19 20 21 22 23 24 23 23 23
5 5 5 6 6 7 7 8 8 9 9 10 10 11 11 12 13 13 14 14 15 14 14 13 13 12 12 12 14 15 16 17 17 17 17 18 19 19 19 17 15 15 17 22 25 27 28 28 28 28 27 23 19 16 16 17 17 18 18 18 19 20 21 22 22 22 22 23 22
5 5 5 6 7 7 8 8 8 9 10 10 11 11 12 12 13 14 14 15 15 14 13 12 11 11 11 12 14 16 17 17 17 16 16 18 18 19 19 18 18 19 21 25 27 28 28 28 29 29 29 27 20 16 14 14 15 16 17 17 18 19 20 20 20 20 21 21 21
4 5 5 6 7 7 8 8 9 9 10 10 11 12 12 13 13 14 14 15 15 14 13 12 12 13 14 15 15 16 16 16 16 16 17 18 19 19 19 19 18 19 21 25 27 28 28 28 29 29 29 29 25 19 15 14 15 16 16 16 18 20 21 21 22 23 22 21 21
4 5 6 6 7 8 8 9 9 10 10 10 11 12 13 13 14 14 14 14 14 14 14 14 15 16 17 16 16 16 17 17 16 16 17 18 19 19 20 20 20 20 22 25 27 28 28 29 29 29 30 30 25 20 15 15 16 16 16 16 18 20 21 21 22 23 23 24 23
4 5 6 7 8 8 9 9 10 10 11 11 12 12 13 13 14 14 14 14 14 15 15 15 16 17 17 17 17 17 17 17 17 17 17 17 18 19 20 20 20 21 22 25 27 28 29 29 30 30 30 31 26 22 18 17 17 18 18 20 21 22 22 20 20 22 24 24 24
5 5 6 7 8 9 9 9 10 10 11 12 12 12 13 13 13 13 13 13 13 14 15 15 16 16 17 17 17 17 17 17 17 18 18 19 19 20 20 20 19 19 22 26 28 29 29 30 30 31 31 31 26 22 19 18 17 17 17 18 20 21 23 23 23 23 24 24 24
5 6 6 7 8 9 9 10 10 11 11 12 12 12 13 13 13 14 13 13 13 13 14 14 15 16 16 16 16 17 17 16 17 17 18 19 20 20 21 19 16 18 22 27 29 30 30 30 31 31 31 31 25 21 19 19 18 18 18 20 21 21 22 23 24 24 25 25 24
5 6 7 8 8 9 9 10 10 11 12 12 13 13 13 13 13 13 13 13 13 13 14 14 15 15 15 15 16 17 17 18 18 18 19 19 20 21 21 21 19 21 25 28 30 30 30 31 31 31 30 28 21 18 18 20 19 20 20 21 22 23 24 24 24 24 24 24 24
5 6 7 8 9 9 10 10 11 11 12 12 13 13 13 13 13 13 13 14 14 14 14 15 15 15 15 16 16 16 17 18 19 19 19 19 20 20 21 22 22 24 26 29 30 30 30 31 31 31 29 25 18 16 16 17 17 18 20 22 22 23 24 24 24 23 23 23 23
5 6 7 8 9 10 10 11 11 12 12 13 13 13 13 13 13 12 12 13 13 14 14 14 15 15 16 16 16 16 17 18 19 19 19 19 19 20 21 22 22 24 26 28 29 30 30 30 31 30 28 22 17 16 15 15 15 16 18 20 21 22 23 22 22 22 23 23 23
6 6 7 8 9 10 10 11 11 12 13 13 13 13 13 13 12 12 12 12 12 13 14 14 15 15 16 16 17 17 18 18 19 19 19 19 19 20 21 22 23 23 24 26 29 30 30 31 31 30 27 21 18 16 15 14 15 16 17 18 19 20 21 19 18 18 20 23 25
6 7 7 8 9 10 10 11 12 12 13 13 13 13 12 12 12 11 11 11 12 13 14 15 15 16 16 17 17 18 18 19 19 19 19 19 19 20 21 22 23 23 24 26 29 30 31 31 31 30 28 23 19 16 14 13 15 16 17 17 17 19 19 18 17 16 18 22 26
6 7 8 9 9 10 11 11 12 12 12 12 12 12 12 12 12 12 12 11 12 12 13 14 16 16 16 17 17 18 19 19 19 19 19 19 20 21 22 22 22 23 25 27 29 30 31 31 31 31 28 22 18 15 13 13 14 16 17 17 16 16 17 17 16 16 17 19 23
6 7 8 9 9 10 11 12 12 12 12 12 12 12 12 12 12 12 11 11 12 12 13 13 15 16 17 17 16 17 19 20 20 19 19 20 20 21 21 21 22 23 24 25 27 29 30 31 31 31 28 22 18 14 13 12 14 16 17 18 17 16 15 16 16 16 16 18 19
Wind_Direction
172 172 174 177 182 187 193 200 207 216 228 238 245 249 252 258 265 268 270 270 271 274 275 277 280 282 284 284 284 283 283 282 280 279 277 276 275 275 275 275 274 273 273 272 273 274 274 273 272 271 270 268 269 268 267 265 268 269 269 268 268 270 270 269 268 267 265 264 263
174 174 174 177 183 190 195 201 207 213 221 231 242 250 255 258 263 266 268 269 270 272 275 275 276 278 279 281 281 281 280 279 278 277 276 274 273 272 271 270 269 268 268 269 270 271 272 272 273 273 272 271 270 270 268 264 264 265 266 266 266 267 267 267 266 265 265 264 263
172 174 177 183 189 193 199 207 212 218 223 230 238 246 253 256 260 264 268 269 271 273 274 273 274 276 277 279 279 278 277 277 277 276 275 273 272 271 269 268 268 267 266 266 266 267 268 271 272 272 272 272 271 271 271 270 268 268 268 269 268 268 267 266 266 265 265 263 261
173 176 181 189 195 200 204 212 220 225 229 235 240 245 248 252 256 262 266 270 271 271 270 270 273 274 275 277 277 276 276 275 275 275 274 273 272 272 271 270 270 270 269 268 268 268 269 270 271 271 272 272 272 271 271 271 270 269 269 269 269 268 267 266 266 265 264 263 262
175 180 185 192 197 204 211 219 228 233 237 239 243 245 246 248 252 257 261 264 263 264 265 268 271 272 273 273 273 273 273 272 272 272 272 271 272 272 272 271 272 272 272 272 271 271 271 271 270 270 270 271 269 268 267 268 268 267 266 266 266 266 266 266 266 265 265 264 263
178 181 185 190 197 205 214 222 231 237 242 244 246 248 249 249 252 255 258 261 264 267 270 272 271 271 270 270 270 271 271 272 272 272 272 273 273 273 273 273 272 272 272 272 272 272 271 271 269 268 267 268 267 266 266 268 267 267 266 265 264 265 265 266 266 266 266 266 265
177 179 183 188 196 206 216 223 229 235 239 244 247 249 252 254 257 260 263 267 270 272 273 271 270 269 269 270 271 272 273 275 275 275 274 274 273 273 273 274 274 274 274 274 275 274 273 272 271 270 270 269 269 268 267 266 266 266 266 266 266 265 266 267 268 268 268 268 268
175 179 184 189 197 209 218 225 230 235 238 241 246 251 255 259 262 265 267 269 269 269 269 268 268 269 271 271 272 272 273 274 275 275 274 274 274 275 275 276 276 276 276 277 277 278 278 276 274 273 273 272 270 269 268 267 267 267 267 268 268 268 267 267 268 268 268 268 268
180 185 189 195 202 211 220 227 233 238 243 247 250 255 259 263 265 267 269 268 267 267 267 267 268 270 271 271 272 272 272 272 273 273 274 274 275 276 277 277 278 278 278 279 280 280 280 279 275 272 272 271 271 271 271 271 271 270 270 269 270 269 269 268 268 268 268 268 268
187 190 194 202 208 215 222 231 237 243 247 252 255 258 261 264 265 266 267 268 270 270 269 269 272 273 274 274 273 273 272 271 271 272 273 274 274 275 275 277 278 279 280 281 282 282 281 278 275 273 272 271 272 274 274 273 272 271 271 269 269 270 270 269 269 269 269 269 268
194 195 199 210 216 223 230 238 241 245 248 253 257 260 263 264 265 267 268 270 270 270 269 271 273 274 274 273 272 272 272 272 272 273 274 275 276 276 277 278 279 280 281 281 281 280 279 277 275 274 273 272 272 273 273 273 272 271 271 270 270 270 270 270 269 269 269 269 269
200 203 208 216 223 230 236 243 245 248 251 255 260 263 266 267 268 269 269 268 268 269 270 271 272 272 272 272 272 272 273 273 275 276 278 279 279 280 280 280 280 279 279 279 279 278 276 274 275 275 274 274 273 273 273 274 273 273 272 272 272 271 271 271 270 269 269 269 269
206 211 215 220 226 233 239 245 249 252 255 259 262 265 267 268 269 269 269 268 269 270 271 272 271 271 271 271 272 274 276 278 279 280 281 282 282 282 282 281 280 280 280 280 279 277 276 275 275 276 276 276 275 274 274 275 275 275 274 274 273 272 272 272 271 271 271 270 270
210 216 222 225 230 236 242 247 251 256 260 263 264 264 266 268 268 268 268 269 270 271 273 274 272 271 271 273 275 278 280 282 283 283 283 282 282 282 282 281 281 281 281 280 279 278 277 277 277 277 277 277 276 276 276 276 276 276 275 275 275 274 273 273 273 273 272 272 271
216 220 225 229 234 239 244 250 255 260 264 266 266 266 267 269 269 269 269 271 273 274 275 276 275 275 276 278 280 282 284 285 285 285 284 284 284 283 283 282 282 282 281 281 280 279 278 278 278 278 278 278 278 278 278 277 276 276 275 275 275 274 274 274 274 273 273 272 272
221 224 227 231 237 243 249 254 258 262 265 267 269 269 270 270 270 270 270 273 275 276 277 278 280 281 282 282 283 285 286 286 286 285 286 286 286 285 285 284 284 283 283 282 282 281 280 279 279 279 279 279 279 279 278 278 277 276 275 274 274 274 274 274 274 274 273 273 272
223 226 230 235 242 248 254 259 262 264 267 270 272 272 272 273 273 273 274 276 279 281 282 283 284 286 286 286 287 287 288 288 287 287 287 288 288 287 287 285 284 284 284 283 283 282 281 280 279 279 279 279 279 279 279 278 277 276 275 275 275 274 275 275 275 275 274 274 273
224 228 232 239 246 253 258 261 263 265 268 271 272 273 273 274 277 278 279 280 282 284 285 286 285 286 287 288 289 289 289 289 289 288 288 288 288 287 286 285 284 284 283 283 282 282 281 281 281 280 280 280 279 279 279 278 278 277 277 276 276 276 276 276 275 275 275 274 273
227 232 237 244 251 256 260 263 264 266 269 271 272 273 274 275 277 279 281 281 282 284 285 287 287 287 287 289 290 290 289 289 289 288 287 287 286 285 285 284 284 283 283 282 282 282 282 282 282 282 282 281 281 280 279 279 278 278 278 277 277 277 276 276 275 274 273 272 271
234 239 244 250 256 260 263 265 266 269 270 271 272 273 274 275 277 279 281 283 284 286 287 288 289 289 290 290 290 290 289 288 288 287 287 286 286 285 284 284 284 283 282 282 282 282 283 283 283 283 283 283 282 281 281 280 279 279 278 278 277 276 276 275 274 272 271 270 269
240 246 251 256 259 262 265 267 269 270 271 272 273 274 276 278 280 282 284 286 288 289 289 289 290 291 291 292 291 290 289 288 287 287 287 287 285 284 284 284 284 283 283 282 283 283 284 284 284 284 284 283 282 281 281 280 280 279 278 277 276 275 274 273 272 271 269 268 267
244 250 255 259 261 264 266 268 269 270 271 273 274 277 280 283 285 287 288 289 290 290 290 290 291 291 292 292 292 291 290 289 287 286 286 286 285 284 283 283 283 283 283 283 283 283 284 284 284 283 283 282 282 281 280 280 280 279 278 277 275 274 273 272 271 269 268 267 266
248 253 257 259 262 265 267 269 271 272 274 276 280 283 286 289 291 291 292 291 291 291 291 291 291 291 291 291 291 290 290 288 287 285 283 283 283 283 283 283 283 283 283 283 283 283 283 284 283 283 282 281 281 281 280 280 279 279 278 277 276 275 274 273 272 271 269 268 266
250 254 257 259 263 266 269 272 273 276 278 282 286 289 292 293 294 293 293 292 291 291 291 291 290 290 290 290 289 288 287 287 286 285 284 283 283 284 285 285 284 283 282 282 281 282 282 283 283 283 282 282 281 281 280 280 279 279 279 278 278 277 277 275 274 273 272 271 269
251 254 258 261 266 269 272 274 277 280 284 288 291 293 294 294 294 294 293 292 291 291 291 290 290 289 289 288 287 286 285 285 286 286 287 286 286 286 287 286 285 284 283 282 281 282 282 282 283 283 284 284 283 282 282 281 281 280 280 280 280 279 279 278 277 276 274 273 271
252 256 260 263 268 272 275 278 282 286 289 293 294 294 294 293 293 292 292 292 291 291 291 291 290 289 288 287 286 286 285 285 286 288 289 290 290 289 288 286 285 284 283 282 283 283 283 283 283 284 284 284 284 284 284 283 282 282 281 280 279 279 279 279 278 277 275 273 271
254 259 264 268 273 276 280 284 288 290 292 294 294 293 293 292 292 291 291 291 291 291 291 290 290 289 288 287 286 287 287 288 289 289 290 290 290 289 288 287 285 283 282 283 284 284 285 285 285 285 285 285 284 283 283 283 282 281 280 278 278 277 277 278 279 279 278 276 275
257 263 269 275 278 281 285 289 291 292 293 293 293 292 291 291 290 290 290 291 291 292 291 290 289 289 288 288 289 290 290 291 291 291 290 289 288 287 287 286 285 283 283 284 285 286 286 287 287 287 287 286 284 282 281 281 281 281 280 279 279 279 279 279 280 280 280 280 279
262 269 275 279 282 286 289 291 292 292 292 292 292 291 291 290 290 290 290 291 292 292 292 292 291 291 290 291 292 292 292 291 291 290 289 288 288 287 286 286 286 285 285 286 287 287 288 288 288 288 288 287 286 284 282 281 282 282 282 281 280 280 280 279 280 280 281 281 280
267 272 278 282 285 288 289 291 291 291 292 291 291 291 291 291 290 291 291 292 292 292 292 293 293 293 292 291 292 292 291 290 290 289 289 289 288 288 287 287 287 286 287 288 289 289 289 290 290 289 289 289 288 286 283 282 282 282 281 280 279 279 279 279 279 279 279 279 279
269 275 279 283 285 287 288 290 290 291 291 291 291 291 291 290 290 291 292 292 292 293 293 293 292 291 291 291 291 291 291 291 291 290 290 289 289 289 288 288 288 288 288 289 290 291 291 291 291 290 290 290 289 287 284 282 281 280 280 279 279 279 280 279 279 278 278 277 277
269 275 280 283 284 286 288 290 291 291 291 291 291 291 290 290 290 291 292 294 294 294 294 293 292 292 292 292 292 292 292 292 292 291 290 290 289 290 290 289 290 290 291 292 292 292 292 291 291 290 290 290 289 287 284 282 281 280 279 279 279 279 279 279 278 277 276 276 275
268 274 278 282 284 286 288 290 291 292 292 292 291 291 291 291 291 291 292 293 293 294 294 294 294 293 293 293 294 293 293 292 292 291 291 290 290 291 292 292 291 292 292 292 292 291 291 291 291 291 291 291 290 288 286 283 282 281 280 279 279 278 278 277 276 275 275 274 273
268 274 278 281 285 287 290 291 292 292 292 292 291 291 291 292 292 292 293 293 294 294 294 293 293 293 293 293 294 294 294 293 292 292 293 293 293 293 293 293 291 290 291 291 291 291 291 291 291 291 292 292 291 289 286 285 283 281 280 279 278 277 276 275 274 273 272 272 271
270 276 280 283 286 289 291 292 293 294 293 293 293 293 293 292 292 293 294 296 295 294 293 291 292 292 292 293 293 293 293 293 294 294 294 295 294 294 292 291 289 289 290 290 291 291 292 292 292 292 292 293 291 289 286 285 283 281 279 278 277 276 275 274 273 272 271 270 269
272 278 282 286 288 290 292 294 295 295 294 294 294 295 295 295 294 295 296 297 295 294 293 293 294 294 294 294 293 293 294 295 295 295 295 294 293 292 291 290 290 290 290 291 291 292 292 292 292 292 293 292 290 287 285 284 282 281 279 278 277 276 275 274 273 272 271 270 268
275 280 284 287 290 292 294 296 296 296 295 294 295 296 297 297 296 295 296 296 295 294 294 295 296 296 295 296 295 295 295 295 295 294 294 292 292 291 290 290 290 290 291 291 292 292 292 292 292 293 293 292 289 287 285 283 281 280 279 278 277 276 275 274 273 272 270 269 267
279 283 286 289 291 293 295 295 295 295 294 295 295 296 296 297 296 295 295 296 295 295 296 296 296 296 296 296 295 294 293 293 293 292 292 291 290 290 290 290 290 290 291 291 291 291 291 292 292 292 292 291 289 287 285 282 280 278 278 277 276 275 275 273 272 271 269 268 266
284 286 288 289 291 292 293 293 293 293 294 295 295 295 296 296 295 295 295 296 295 295 295 296 296 296 296 296 295 294 293 293 292 291 291 290 290 289 289 290 290 290 290 290 291 291 291 291 292 292 292 290 288 286 283 280 279 278 277 276 276 276 275 274 272 270 269 267 267
286 288 289 289 290 291 292 292 292 292 293 294 295 295 295 295 294 294 295 295 294 294 294 294 295 295 296 297 296 295 294 293 292 291 290 289 289 289 289 289 289 289 290 290 290 290 291 291 291 291 291 289 287 284 281 279 278 277 277 277 277 277 276 275 273 271 270 269 268
287 289 289 290 290 290 291 291 291 292 292 292 293 293 294 294 294 295 296 296 296 295 295 294 294 295 296 297 296 295 294 294 293 292 291 290 290 290 289 289 289 289 289 289 289 289 289 290 290 290 290 289 286 284 281 278 278 278 278 278 278 278 277 277 276 274 272 271 270